Regional Weather Roundup
Issued by NWS

Home | Current Version | Previous Version | Text Only | Print | Product List | Glossary Off
Versions: 1 2 3 4 5 6 7 8 9 10 11 12 13 14 15 16 17 18 19 20 21 22 23 24 25 26 27 28 29 30 31 32 33 34 35 36 37 38 39 40 41 42 43 44 45 46 47 48 49 50

000
ASUS43 KFSD 221102
RWRSD

WEATHER ROUNDUP FOR SOUTH DAKOTA
NATIONAL WEATHER SERVICE SIOUX FALLS SD
600 AM CDT SUN APR 22 2018

NOTE: "FAIR" INDICATES FEW OR NO CLOUDS BELOW 12,000 FEET WITH NO
SIGNIFICANT WEATHER AND/OR OBSTRUCTIONS TO VISIBILITY.


SDZ001>005-009-010-012>017-221200-
NORTHWEST AND NORTH CENTRAL SOUTH DAKOTA

CITY           SKY/WX    TMP DP  RH WIND       PRES   REMARKS
BUFFALO          N/A     36  33  89 SW5       30.06S
FAITH            N/A     35  35 100 S18       30.12R WCI  24
MOBRIDGE       CLEAR     35  32  88 SE10      30.17S WCI  27
$$

SDZ012>016-024>037-041>051-057-063-072>074-221200-
SOUTHWEST AND SOUTH CENTRAL SOUTH DAKOTA

CITY           SKY/WX    TMP DP  RH WIND       PRES   REMARKS
RAPID CTY ARPT CLEAR     33  31  92 SE6       30.11S WCI  28
PIERRE         CLEAR     35  33  92 S7        30.20F WCI  29
CUSTER         CLEAR     29  26  89 CALM      30.12R
ELLSWORTH AFB  CLEAR    N/A N/A N/A W3        30.11S
PHILIP         CLEAR     38  35  89 VRB7      30.17S
PINE RIDGE     PTCLDY    36  35  96 S6        30.15S
SPEARFISH      FAIR      39  32  75 NW5       30.13R
WINNER         FAIR      40  33  76 S8        30.22F
$$

SDZ004>011-016>023-039-040-221200-
NORTHEAST SOUTH DAKOTA

CITY           SKY/WX    TMP DP  RH WIND       PRES   REMARKS
ABERDEEN       CLEAR     29  29 100 S3        30.26S
WATERTOWN      CLEAR     31  28  89 CALM      30.27R
BROOKINGS      CLOUDY    35  30  82 SE5       30.29R
SISSETON         N/A     32  30  92 SE3       30.27S
$$

SDZ017-020-022-023-036>040-048>070-221200-
SOUTHEAST SOUTH DAKOTA

CITY           SKY/WX    TMP DP  RH WIND       PRES   REMARKS
SIOUX FALLS    PTCLDY    34  31  88 NE6       30.28R WCI  29
HURON          NOT AVBL
CHAMBERLAIN    CLEAR     35  35 100 SE7       30.24F FOG     WCI  29
MITCHELL       CLOUDY    38  36  92 E6        30.28R
YANKTON        PTCLDY    38  35  89 NE6       30.27R
$$

ABBREVIATIONS USED IN REMARKS
   TC - TEMPERATURE IN CELSIUS
  WCI - WIND CHILL INDEX
   HX - HEAT INDEX
  VSB - VISIBILITY




USA.gov is the U.S. government's official web portal to all federal, state and local government web resources and services.